Wind_Speed
78 79 80 81 82 83 84 84 84 84 83 84 84 85 86 87 87 88 88 88 88 88 89 90 90 90 90 90 90 91 91 91 90 90 90 90 90 91 93 94 93 93 93 94 94 95 95 95 96 96 95 93 91 89 88 87 86 85 84 84 83 83 84 83 82 82 82 84 86 87 88 88 88 89 90 90 91 92 93 94 95 97 99 101 104
81 82 83 85 85 86 87 86 86 86 86 86 87 88 88 89 90 89 89 89 89 90 90 92 92 92 92 93 93 94 94 94 94 93 92 93 93 94 95 95 96 96 96 97 97 97 97 98 98 96 95 92 90 88 87 86 85 84 83 82 82 83 84 84 84 84 84 85 87 88 88 89 89 90 90 91 92 93 95 96 98 100 102 104 106
85 85 86 87 87 88 88 88 89 89 89 90 90 91 91 91 91 91 90 91 91 91 92 93 94 95 95 96 96 97 97 97 97 96 96 95 95 96 96 97 97 98 98 99 99 100 100 99 98 96 94 92 89 87 86 85 84 83 82 82 82 83 84 85 86 86 86 86 87 87 87 89 90 91 92 93 95 96 98 99 100 102 103 105 106
87 87 88 88 89 90 91 92 93 93 94 94 94 94 94 93 93 93 93 93 93 94 94 95 95 96 97 98 98 99 99 99 100 100 99 99 98 98 98 98 99 99 99 100 101 102 101 99 97 95 93 90 88 86 85 84 83 82 82 82 83 84 85 86 87 87 87 87 87 88 88 89 91 92 94 95 96 98 99 100 102 103 104 106 107
89 90 91 91 92 94 95 96 97 97 97 97 97 96 96 96 95 95 96 96 96 96 97 97 98 98 99 100 100 101 101 101 102 102 102 101 100 100 100 100 100 100 100 101 102 101 99 97 95 94 91 88 86 84 83 82 82 83 83 84 85 86 87 88 88 88 89 89 90 90 91 92 93 94 95 97 98 99 100 102 103 104 106 107 109
93 94 95 95 96 97 97 98 99 99 99 99 99 98 98 98 98 98 99 99 99 99 99 100 100 101 101 102 103 103 103 103 103 104 104 103 103 103 102 101 101 101 102 102 101 100 98 96 94 91 88 86 84 83 82 82 82 84 85 86 87 88 89 90 91 91 91 92 93 93 94 95 95 96 97 98 99 101 102 103 105 106 108 109 111
96 97 98 99 99 99 99 100 100 100 100 100 100 100 100 100 100 100 101 101 101 101 102 103 103 103 104 104 105 105 105 105 105 105 105 105 105 104 103 102 102 103 103 102 100 98 96 94 92 89 86 84 82 82 82 83 84 86 87 89 90 91 91 92 94 94 94 95 96 97 97 98 98 99 100 101 102 103 104 105 107 109 110 112 114
99 100 100 101 101 101 101 101 101 101 101 101 101 102 102 102 102 102 103 103 104 104 105 105 105 105 105 106 106 106 106 106 106 107 107 107 106 105 105 105 104 103 102 100 98 96 94 92 89 86 84 83 82 83 84 86 87 89 90 91 92 94 95 96 97 97 98 98 99 100 100 101 102 102 103 104 105 106 107 108 110 112 113 115 117
101 102 102 103 103 103 103 103 103 103 103 104 104 105 105 105 105 105 106 106 107 107 107 107 107 107 108 108 107 107 107 107 108 108 108 108 107 107 106 106 104 102 100 98 96 94 92 89 86 84 84 83 84 85 87 89 90 91 93 94 95 96 98 99 100 100 101 101 102 103 103 105 106 106 107 108 108 109 110 112 113 114 116 117 119
103 103 104 105 105 106 106 107 107 107 108 108 108 108 109 109 109 109 109 109 110 110 110 110 109 110 110 109 109 109 108 109 109 109 109 109 109 108 106 104 102 101 99 97 94 92 89 87 85 85 85 86 87 89 90 92 93 95 96 96 97 99 100 101 102 103 104 104 105 105 106 107 108 109 109 110 111 111 112 114 115 116 117 119 120
105 105 106 107 108 109 109 110 110 110 111 111 112 112 112 112 112 112 113 113 113 113 112 112 112 112 111 111 111 110 110 110 110 110 110 110 109 107 104 102 101 99 97 95 92 90 88 87 87 87 88 90 91 92 94 95 96 98 98 99 100 101 102 104 105 105 106 106 107 108 108 109 109 110 111 112 113 113 114 115 117 118 119 120 122
109 109 110 111 111 112 112 112 112 113 113 114 114 114 115 115 115 115 115 116 115 115 114 114 114 114 113 112 112 111 111 111 111 110 109 108 107 105 103 101 99 97 94 92 90 89 89 89 90 91 92 93 95 96 98 99 100 101 101 102 103 104 105 106 107 107 108 108 109 110 110 110 111 112 113 114 115 116 117 117 118 120 121 122 123
113 113 113 114 114 114 114 114 114 114 115 116 116 116 116 116 116 116 117 117 116 116 116 115 115 114 113 113 112 111 111 110 110 109 108 106 105 103 100 98 96 94 93 92 92 92 92 92 93 95 96 98 99 100 102 103 104 104 104 105 106 107 108 108 109 110 110 111 111 112 112 112 113 114 116 117 118 118 119 120 121 122 123 124 124
115 115 115 115 115 115 115 115 115 115 115 116 116 116 116 116 117 117 117 117 117 116 116 115 115 114 113 113 111 110 109 109 108 107 106 104 103 101 99 97 96 95 95 95 95 95 96 96 97 99 101 102 104 105 106 107 107 107 108 108 110 110 111 112 112 112 113 114 114 115 115 115 116 118 119 120 120 121 121 122 123 124 124 125 125
116 116 116 116 116 116 115 115 115 115 115 115 115 115 116 116 116 117 117 116 116 115 115 114 114 113 112 111 110 108 108 107 106 105 103 102 101 100 98 97 97 97 97 98 99 99 100 101 102 103 105 106 108 109 110 110 111 111 111 112 113 113 114 114 115 116 116 117 117 118 118 119 119 120 122 122 123 124 124 124 125 125 125 124 124
118 118 117 117 116 116 115 114 114 114 114 114 114 114 115 115 114 115 114 114 114 113 113 113 112 111 111 110 108 107 106 105 104 102 101 101 100 99 99 99 99 100 100 101 102 103 103 104 105 107 108 109 111 112 113 113 114 114 115 115 115 116 116 116 117 118 118 119 119 120 121 121 122 123 123 124 125 125 125 125 124 124 123 123 122
118 118 117 117 116 116 115 114 113 113 113 112 112 112 112 112 111 112 111 111 111 111 111 110 110 109 108 108 106 105 104 103 102 101 100 100 100 100 100 101 102 103 104 105 105 106 106 107 108 109 110 112 113 114 114 115 116 116 117 117 117 117 117 117 118 119 119 120 121 121 122 123 123 124 124 125 125 125 125 124 123 123 122 121 121
117 116 115 115 114 114 114 113 112 111 111 110 110 110 110 109 109 109 109 109 108 108 108 108 107 106 105 105 104 103 102 102 101 101 101 101 102 103 104 105 106 107 107 108 108 108 109 110 110 111 112 113 114 115 116 116 117 117 117 118 118 118 118 118 119 120 121 122 122 123 123 123 123 124 124 124 123 123 123 122 122 121 121 120 120
114 113 112 112 112 112 112 111 110 110 109 108 108 107 107 107 107 106 106 106 105 105 104 104 103 103 103 102 102 102 102 102 102 103 104 106 107 109 110 110 111 112 112 111 111 111 112 112 113 113 114 115 115 116 117 117 117 117 118 118 118 118 118 119 120 121 122 123 124 124 124 123 123 123 122 122 121 121 121 120 120 120 120 119 119
109 108 107 107 107 108 108 107 107 106 106 105 104 104 104 103 103 103 103 103 102 102 102 102 102 102 103 104 104 105 105 106 106 108 110 112 113 114 115 115 116 117 116 116 115 115 115 116 116 115 115 116 116 117 117 117 117 118 118 118 118 119 119 120 121 122 123 124 124 124 123 123 121 120 120 119 119 119 119 119 119 119 118 118 118
103 102 102 102 102 103 103 103 103 103 103 102 102 101 102 102 102 102 102 102 103 103 103 104 105 106 107 108 109 110 110 111 112 113 115 117 118 118 119 120 120 119 119 119 118 118 118 118 118 117 116 116 115 116 117 118 118 119 119 119 119 120 121 121 122 123 123 124 123 122 121 120 119 119 118 118 118 118 118 118 118 117 117 117 116
98 98 98 99 99 100 100 101 101 101 102 102 102 102 102 103 103 104 104 105 106 107 107 109 110 111 111 112 113 114 115 115 116 117 119 120 122 122 122 122 122 121 121 121 120 120 120 119 118 118 117 116 115 116 117 118 118 118 119 119 120 120 121 122 122 122 122 122 121 120 119 118 118 117 117 117 117 117 116 116 116 115 115 115 115
96 96 97 97 98 99 100 101 102 102 103 103 104 104 105 106 106 107 109 109 110 111 112 113 114 115 116 116 117 117 118 119 119 120 121 123 124 124 124 124 123 122 121 121 121 121 119 118 117 117 116 116 116 117 118 118 118 118 118 119 120 120 120 121 121 120 120 119 118 118 117 117 116 116 115 115 115 114 114 114 114 113 113 114 114
97 97 98 99 100 101 102 103 104 105 106 107 108 108 109 110 111 112 113 114 115 116 116 117 118 119 119 120 120 121 121 121 120 121 121 122 122 123 123 123 122 122 121 122 121 121 119 118 117 117 117 117 118 118 118 117 117 117 118 118 118 118 118 118 118 118 117 117 116 116 115 114 114 113 113 112 112 112 112 111 111 112 112 113 113
100 101 102 103 104 105 105 107 108 109 110 111 112 113 114 114 115 116 117 118 119 119 120 120 121 121 122 122 122 122 121 121 120 119 119 119 119 120 121 121 121 121 121 121 121 121 120 119 118 117 117 118 118 117 116 116 116 116 116 116 116 116 116 116 116 115 114 114 113 112 112 111 110 110 110 109 109 109 109 110 110 110 111 112 112
105 105 106 107 108 108 109 109 111 112 114 115 115 116 117 118 118 119 120 120 121 121 121 122 122 123 123 123 123 122 121 119 118 117 117 117 117 118 119 119 120 120 121 122 122 121 120 119 118 118 117 116 115 114 114 114 114 114 114 114 114 114 113 113 112 111 111 110 109 109 108 107 107 107 107 107 107 107 107 108 108 109 109 109 109
109 109 110 111 112 113 113 113 114 115 116 117 117 118 119 119 120 120 121 121 121 121 121 121 121 122 122 122 121 120 119 118 117 117 116 116 117 118 118 118 119 120 120 121 121 121 120 119 118 116 115 113 113 113 113 113 113 112 112 112 111 110 109 109 108 107 106 106 105 105 104 104 104 104 104 104 105 105 105 106 106 107 107 107 107
114 114 115 116 117 117 118 118 118 119 119 119 119 120 120 120 120 120 120 120 120 119 119 119 119 120 120 120 119 119 118 117 117 116 115 115 116 117 117 117 118 118 118 118 119 119 119 117 116 114 113 112 111 111 111 110 110 109 107 106 105 105 104 104 103 103 102 102 102 101 101 101 101 101 102 102 103 103 104 105 105 106 106 107 107
119 119 120 121 122 122 123 122 122 121 121 120 120 120 119 119 118 118 118 118 117 117 117 117 118 118 118 118 117 117 116 115 114 114 113 113 114 115 115 116 117 117 116 116 116 116 116 115 114 112 111 110 108 107 106 105 103 102 101 100 100 99 99 99 99 99 99 99 99 99 99 99 99 100 101 102 103 103 104 105 105 106 106 107 108
123 125 126 126 126 125 125 124 123 121 120 119 119 118 118 117 116 115 115 115 115 115 115 115 116 115 115 115 115 114 114 113 112 111 110 111 112 112 114 115 116 116 115 114 113 113 112 111 109 107 106 104 102 101 99 98 97 96 96 97 97 97 97 97 96 96 96 96 97 97 98 99 100 100 102 103 104 104 105 106 106 107 107 107 108
127 127 128 128 127 125 124 122 121 120 119 118 117 116 116 115 114 113 113 113 113 113 113 113 113 112 112 112 111 112 112 111 110 109 109 108 108 109 110 112 113 112 111 110 110 109 108 106 104 102 101 99 97 96 95 94 94 94 95 96 97 97 96 96 96 95 95 96 96 97 98 99 100 101 102 103 104 105 106 106 107 107 107 108 109
128 127 127 126 124 122 121 119 118 117 117 116 115 114 114 113 113 112 111 111 111 111 111 111 110 109 109 108 108 108 108 107 107 106 105 105 104 105 106 107 107 107 106 105 105 105 104 102 100 98 97 96 95 94 93 93 93 94 95 95 96 96 96 95 95 95 95 96 97 98 99 100 101 102 103 104 105 105 106 106 107 107 107 108 108
127 125 124 123 121 120 118 117 116 116 115 114 114 113 112 111 110 109 109 108 108 108 107 107 106 105 104 104 104 103 102 102 101 101 101 101 100 100 101 103 103 102 102 102 101 101 100 99 97 95 95 94 93 92 91 92 93 93 94 94 94 94 95 95 95 96 96 97 98 99 100 100 101 102 103 104 104 105 106 106 106 107 107 108 108
124 122 121 120 119 118 116 116 115 114 113 112 111 110 109 107 106 105 104 104 103 102 101 101 101 101 100 100 99 98 97 97 97 97 98 98 98 98 99 99 100 100 99 98 98 97 96 95 94 94 93 92 91 91 91 92 92 92 92 92 92 93 94 95 95 96 97 98 99 100 100 101 102 103 103 104 105 105 106 106 106 106 107 107 108
120 119 118 117 116 115 113 112 111 110 109 108 107 105 104 102 101 101 100 100 99 97 97 97 98 98 97 96 95 94 94 94 94 95 95 96 96 97 97 97 97 96 95 95 95 94 93 93 92 92 91 91 91 91 92 92 92 92 92 92 92 93 93 94 95 96 97 98 99 100 101 102 102 103 103 104 105 105 106 106 106 107 107 107 107
117 116 115 114 113 111 109 108 106 105 104 103 102 101 100 99 98 98 98 97 96 95 95 95 95 95 94 94 93 92 92 92 93 93 94 95 96 96 95 94 93 92 92 92 92 92 91 91 90 90 90 91 91 92 92 92 92 92 92 92 92 93 93 94 95 96 98 99 100 101 101 102 102 103 104 105 105 106 106 107 107 107 107 106 106
114 112 111 110 109 107 105 104 103 102 101 100 100 99 97 97 96 96 96 94 94 93 93 93 93 92 92 91 91 91 91 91 91 92 93 93 94 94 94 93 91 90 90 91 91 91 91 90 90 90 90 91 92 91 91 91 91 91 92 92 92 93 93 94 95 97 98 99 100 100 101 101 102 103 104 105 106 106 106 106 107 106 106 105 105
110 109 108 107 106 104 103 102 101 100 99 98 98 97 96 95 95 95 94 93 92 92 92 91 91 91 90 90 89 89 89 89 90 90 91 91 92 92 93 92 89 88 89 89 90 90 90 90 90 90 91 91 91 91 90 90 90 90 91 91 92 92 93 94 95 96 97 98 99 100 100 101 102 103 104 105 106 106 106 106 106 105 105 105 105
108 107 106 105 104 103 102 101 99 98 97 97 96 96 95 94 94 94 93 92 91 91 90 90 90 90 89 88 88 87 87 87 88 89 89 89 90 91 91 90 89 88 88 88 89 90 90 90 90 90 90 90 90 90 90 90 89 90 90 91 91 92 93 94 95 96 97 98 99 99 100 101 102 103 104 105 106 106 105 105 105 105 105 105 105
106 105 104 103 103 102 101 100 98 97 96 95 95 95 94 94 93 93 92 91 91 90 90 90 90 89 88 87 87 86 86 86 87 87 87 87 88 88 88 88 88 87 87 88 88 89 89 89 89 89 88 88 88 88 88 88 89 89 90 90 91 92 93 94 95 96 97 97 98 99 101 102 103 104 105 106 106 105 104 105 105 106 106 106 106
105 103 102 102 101 101 100 99 98 96 95 94 93 93 93 92 92 91 91 91 90 90 90 90 89 88 87 86 86 86 86 86 86 86 86 85 85 86 86 87 87 87 87 87 87 88 88 87 87 87 87 87 87 87 88 88 88 89 90 91 92 93 94 95 95 96 97 98 99 100 102 103 104 105 105 105 105 105 105 105 106 106 105 105 105
104 103 102 101 101 100 99 99 97 96 94 93 92 92 91 91 90 90 90 90 90 90 90 89 89 88 87 86 86 86 85 85 85 85 84 84 84 85 85 86 86 86 87 87 87 87 87 87 86 86 86 86 87 87 87 88 89 90 90 91 92 93 94 95 96 97 98 99 100 101 103 104 105 106 106 106 106 105 105 105 104 104 104 103 103
102 102 101 100 100 100 99 98 97 96 94 93 92 91 90 90 90 90 90 90 90 90 90 89 88 88 87 86 86 86 86 85 85 84 83 84 84 85 85 86 86 87 87 87 87 87 87 88 87 87 87 87 87 88 88 89 90 91 91 92 93 94 95 96 97 98 99 100 101 103 104 105 106 106 106 106 105 104 103 103 103 102 102 101 101
101 101 100 100 99 99 99 98 97 96 94 93 92 91 90 90 89 90 90 91 91 91 90 89 89 89 88 87 87 86 86 86 85 84 83 84 85 85 85 86 86 87 87 87 88 88 88 89 89 89 89 89 89 90 90 91 92 92 93 94 94 95 96 97 98 99 100 101 103 104 105 106 107 106 105 104 103 102 102 101 101 100 99 98 98
100 100 99 98 98 99 98 98 97 95 94 93 92 91 90 89 89 90 90 91 91 90 90 90 90 90 89 88 87 87 87 87 86 85 84 85 85 86 86 86 87 87 88 88 88 89 89 89 89 90 90 91 91 92 92 93 94 94 95 95 96 97 98 99 100 101 102 103 104 106 106 106 106 104 103 101 101 100 100 100 99 97 96 95 94
99 98 98 97 98 98 98 97 96 95 94 93 91 90 89 88 88 89 90 91 90 90 90 90 90 90 89 88 88 88 88 87 87 86 85 85 86 86 87 87 88 88 88 89 89 90 90 90 91 91 92 92 92 93 94 94 95 96 96 97 98 99 100 101 101 102 103 105 106 106 105 104 102 101 100 100 99 98 98 97 96 94 93 91 90
97 97 97 97 97 97 97 96 96 95 93 92 90 89 88 87 87 89 89 90 90 90 90 90 90 89 89 88 88 88 88 88 88 87 86 86 86 87 87 87 88 89 89 89 90 90 90 91 91 92 93 93 94 95 95 95 96 97 98 99 100 101 101 102 103 104 105 105 104 103 102 100 100 100 99 98 97 96 95 94 93 91 89 88 87
96 96 95 95 96 96 96 95 95 94 92 90 89 88 88 87 87 88 89 89 89 89 89 89 89 89 89 89 89 89 89 89 88 88 88 87 87 87 87 88 88 89 89 90 90 91 91 92 92 93 94 94 95 96 96 96 97 98 99 100 101 101 102 103 103 104 103 102 101 99 99 99 99 99 97 96 95 93 92 91 90 88 87 86 84
94 94 93 93 94 94 94 94 93 92 91 89 88 88 88 88 88 88 88 88 88 88 88 88 88 89 89 89 89 89 90 90 90 89 89 88 88 88 88 88 88 88 89 90 90 91 92 93 93 94 94 95 95 96 96 97 98 99 100 100 101 102 102 102 102 101 100 98 97 97 98 98 98 96 95 93 92 91 89 88 87 86 84 82 81
92 91 91 91 92 93 93 92 92 91 90 89 88 88 87 88 88 87 87 87 87 87 88 88 88 88 89 89 89 89 90 90 90 90 90 89 89 89 89 89 89 89 89 90 91 92 93 93 94 94 94 95 95 96 96 97 98 99 100 100 101 101 100 100 99 97 96 96 97 97 97 96 95 94 92 91 90 89 88 86 85 83 81 80 78
90 90 89 90 90 91 92 91 90 90 90 89 88 87 87 87 87 87 87 86 87 87 87 88 88 89 89 89 89 89 89 90 90 90 90 89 89 89 89 89 90 90 90 91 91 92 93 94 94 94 94 95 95 96 97 97 98 98 99 99 98 98 97 96 95 94 94 95 96 96 95 94 92 91 90 89 88 87 85 84 82 81 79 78 76
Wind_Direction
283 284 285 286 288 289 290 291 291 292 292 292 292 292 292 292 293 294 295 295 295 295 295 295 296 296 297 297 297 298 299 299 300 300 301 301 301 301 301 301 301 301 300 301 301 301 301 302 302 302 302 302 302 301 300 299 298 298 298 298 298 298 298 298 298 298 299 298 298 298 299 298 298 297 297 297 297 296 296 297 297 297 297 297 298
283 285 286 288 289 290 291 291 291 291 291 291 291 291 291 292 293 294 294 294 294 295 295 295 295 296 296 296 297 298 298 299 300 300 300 300 300 300 300 300 300 300 300 300 300 301 302 302 303 302 302 302 301 300 299 298 298 298 298 298 298 298 298 298 298 299 299 298 298 298 298 298 297 297 297 297 296 296 296 296 297 297 297 297 297
285 287 288 289 289 289 289 289 290 290 290 290 290 290 291 291 292 293 293 293 294 294 294 294 295 295 296 296 297 298 298 299 299 299 299 299 298 298 298 298 299 299 299 300 300 301 302 302 302 302 302 301 300 299 298 298 297 297 297 297 297 297 297 298 298 299 299 299 299 299 299 298 298 298 297 296 296 296 296 296 297 297 298 298 298
287 287 288 288 288 288 288 288 289 290 290 290 291 291 291 292 292 292 293 293 293 293 294 294 294 295 295 296 296 297 297 297 297 297 297 297 297 297 297 297 298 298 299 299 300 301 302 302 301 301 301 300 299 298 297 297 296 296 296 296 297 297 297 298 299 299 300 300 300 300 300 299 298 298 298 297 297 297 298 298 298 299 299 299 299
285 286 286 286 286 287 288 288 289 290 291 291 292 292 292 292 292 293 293 293 293 294 294 294 294 294 294 294 295 295 295 295 295 295 295 296 296 296 297 297 298 298 299 299 300 300 301 300 300 300 299 298 297 296 295 295 295 295 296 296 297 297 298 299 299 300 301 301 301 300 300 299 299 299 299 298 298 298 298 298 298 298 298 298 298
285 285 286 287 287 287 288 289 290 290 291 291 292 292 292 292 292 292 292 293 293 293 292 292 292 293 293 293 293 293 293 294 294 294 295 295 296 297 297 298 298 298 299 299 300 300 300 299 299 298 298 296 295 294 294 293 294 295 296 297 297 298 299 299 300 300 301 300 300 300 300 299 299 299 299 298 298 298 298 298 298 297 297 298 298
286 287 287 287 288 288 288 289 289 290 290 290 291 291 291 291 291 290 290 290 290 290 290 290 291 291 291 292 292 292 293 294 294 294 295 296 296 297 298 298 298 298 299 299 299 299 299 298 298 297 296 294 293 292 292 292 293 294 295 296 297 298 298 299 300 300 300 300 300 300 300 300 299 299 298 298 298 298 298 298 298 298 298 299 299
285 285 286 286 286 286 287 287 287 287 288 288 288 288 288 288 288 288 288 288 288 289 289 290 290 291 291 291 292 292 293 293 294 294 295 296 296 297 297 297 298 298 298 298 298 298 297 296 296 294 293 292 291 291 290 291 292 293 294 295 296 297 298 298 299 300 300 300 300 300 300 300 300 299 299 299 299 299 299 299 299 299 300 300 301
283 284 284 284 285 285 285 285 286 286 286 286 286 286 286 286 287 287 287 287 288 288 289 289 290 290 291 291 292 292 293 293 294 294 295 295 296 296 296 297 297 297 297 297 297 296 295 294 293 292 290 290 289 289 289 290 291 292 292 293 294 296 297 298 298 299 299 299 300 300 300 300 300 300 300 300 300 300 300 300 300 300 300 300 300
282 283 283 283 284 284 285 285 286 286 286 286 286 287 287 287 287 287 287 287 288 288 289 290 290 290 291 291 292 292 293 293 293 294 294 295 295 296 296 297 297 297 297 296 295 294 293 292 290 289 288 288 288 288 289 289 290 291 292 293 294 295 296 297 297 298 298 299 300 300 300 299 299 299 299 299 299 299 299 299 299 299 300 300 300
280 281 281 282 283 284 284 285 285 285 286 286 286 286 287 287 287 287 287 288 288 289 289 290 290 291 291 292 292 292 293 293 293 294 294 295 295 296 296 296 296 296 296 295 293 292 291 289 288 288 287 287 288 288 289 290 291 291 292 293 295 296 296 297 297 298 298 299 300 300 299 299 299 299 299 299 298 298 298 299 299 299 300 300 300
280 280 281 281 282 282 283 283 284 284 284 285 285 285 286 286 287 287 287 288 288 289 290 290 290 291 291 291 292 292 293 293 293 294 294 294 295 295 295 295 295 295 294 292 291 290 289 288 288 288 288 288 288 289 290 290 291 292 293 294 296 296 297 297 298 299 300 300 300 300 299 299 299 298 298 298 298 298 298 299 299 299 299 299 300
280 281 281 281 281 282 282 282 283 283 283 284 284 285 285 285 286 286 287 287 288 288 289 289 289 290 290 291 291 291 292 292 293 293 293 294 294 294 294 294 293 293 291 290 289 288 288 288 288 288 288 289 289 290 291 291 292 293 294 296 297 297 297 298 298 299 300 300 299 299 298 298 298 298 297 298 298 299 299 299 299 299 299 300 300
281 281 281 281 281 281 281 282 282 282 282 283 283 283 284 284 284 285 285 286 286 287 287 288 288 288 289 289 290 290 291 291 291 291 292 292 292 293 293 292 292 291 290 289 289 288 288 289 289 289 289 290 290 291 291 292 293 294 295 296 297 297 298 298 298 299 299 299 298 298 298 298 298 298 298 298 299 299 299 299 299 299 299 299 299
281 281 281 281 281 281 281 281 281 281 281 281 281 282 282 283 283 284 284 284 285 285 286 286 287 287 287 288 288 289 289 289 289 290 290 290 291 291 291 291 290 289 289 289 289 288 289 289 289 289 290 290 290 291 292 292 293 294 295 296 296 297 297 298 298 299 299 299 299 299 299 298 298 298 299 299 299 299 299 299 299 298 298 298 298
280 280 280 280 280 280 279 279 279 279 280 280 280 281 281 282 282 283 283 284 284 284 285 285 286 286 286 287 287 287 288 288 288 288 289 289 289 289 289 289 288 288 288 287 287 288 288 288 289 289 289 290 290 291 292 293 293 294 294 295 295 296 297 298 298 298 298 298 298 298 298 298 298 298 298 298 298 298 298 297 297 297 297 297 297
280 280 280 279 279 279 279 279 279 279 279 279 279 280 280 281 281 282 282 282 283 283 284 284 285 285 286 286 287 287 287 287 287 287 287 287 287 287 287 287 286 286 286 286 286 287 287 287 288 288 289 290 290 291 292 292 293 293 294 295 295 296 296 297 297 297 297 297 297 297 297 297 297 297 297 297 296 296 296 297 297 297 297 297 297
279 279 279 279 279 279 279 279 279 279 279 279 279 280 280 280 281 281 281 282 282 282 283 284 284 285 285 285 286 286 286 286 286 286 286 286 286 286 286 286 286 286 286 286 286 287 287 287 288 288 289 290 291 291 292 292 293 293 294 294 295 295 295 296 296 296 296 295 295 295 296 296 296 295 295 295 296 296 296 296 296 296 296 296 296
279 279 279 279 279 279 279 279 279 279 279 279 279 279 280 280 280 280 281 281 281 282 282 283 283 284 284 284 284 284 284 284 284 284 285 285 285 286 286 287 287 287 287 287 287 288 288 288 288 289 289 290 290 291 291 292 292 293 293 293 293 294 294 294 294 294 294 294 294 294 295 295 294 295 295 295 295 295 295 295 295 295 295 295 295
278 278 278 278 278 279 279 279 279 279 279 279 279 279 279 280 280 280 281 281 281 281 281 282 282 282 282 282 282 282 282 282 282 283 284 284 285 285 286 286 287 287 287 288 288 288 288 288 288 289 289 290 291 291 291 291 291 291 291 292 292 293 293 293 293 293 293 293 294 294 294 294 294 294 294 294 294 294 294 294 294 294 294 294 294
277 277 277 277 277 277 278 278 278 278 279 279 279 280 280 280 280 280 280 280 280 279 279 280 280 280 280 280 280 280 280 280 281 282 283 283 284 284 285 285 286 287 287 288 289 289 289 289 289 289 289 290 290 291 291 291 290 291 291 291 292 292 292 292 292 292 292 293 293 293 293 293 293 293 293 293 294 294 294 294 294 294 294 294 294
276 276 276 276 276 277 277 277 277 278 278 279 279 279 279 279 279 279 278 278 278 278 278 277 277 278 278 278 278 279 279 280 280 281 282 283 283 284 284 285 285 286 287 288 288 288 288 289 289 289 290 290 289 289 289 289 289 290 290 291 291 291 291 291 291 292 292 292 292 292 292 293 293 293 293 293 293 293 293 293 293 293 294 294 295
276 276 276 276 276 276 276 277 277 277 277 277 277 277 277 277 277 277 277 277 277 277 276 276 276 276 277 277 277 278 278 279 279 280 281 282 283 283 284 284 285 286 287 287 287 288 288 288 288 288 289 289 288 288 288 289 289 290 290 290 290 290 290 290 291 291 291 292 292 292 292 292 293 293 293 293 293 293 293 293 293 294 294 295 295
275 275 275 275 275 275 275 275 275 276 276 276 276 276 276 276 276 276 276 276 276 276 276 276 276 276 277 277 277 277 278 279 279 280 281 282 283 284 284 285 285 286 286 286 287 287 287 287 288 288 288 288 288 288 288 289 290 290 289 289 289 290 290 290 291 291 291 291 292 292 292 292 292 293 292 292 293 293 293 293 294 294 294 294 295
274 274 274 274 274 274 274 274 274 274 275 275 275 276 276 276 276 276 276 277 277 277 277 277 278 278 278 279 279 279 280 281 281 282 282 283 284 284 285 285 286 286 286 286 286 287 287 287 287 287 287 287 288 289 289 289 289 289 289 289 289 290 290 290 290 291 291 291 291 292 292 292 292 292 292 293 293 293 293 294 294 294 294 294 294
274 274 274 274 274 274 274 274 274 275 275 275 276 276 277 277 277 278 278 278 278 279 279 280 280 281 281 281 282 282 283 283 283 283 284 284 284 285 285 285 286 286 286 286 286 287 287 287 287 287 287 288 289 289 289 289 289 289 289 290 290 290 290 290 290 291 291 291 291 291 292 292 292 292 292 293 293 293 293 293 293 293 293 294 294
277 277 278 278 278 278 278 278 278 278 278 278 278 279 279 279 280 280 281 281 281 282 282 282 283 283 283 283 284 284 284 285 285 285 285 285 285 284 285 285 285 285 285 285 286 286 286 287 287 288 288 289 289 289 289 289 289 289 290 290 290 290 290 290 290 290 290 290 291 291 291 291 292 292 292 291 291 291 292 292 293 293 294 295 296
281 282 282 282 282 283 283 283 282 282 282 282 282 282 282 282 282 282 282 283 283 283 283 283 284 284 284 284 284 284 284 284 284 284 284 284 284 284 284 284 284 283 283 284 284 285 286 287 287 288 288 288 288 288 289 289 289 289 289 289 289 288 288 288 289 289 289 289 290 290 290 291 291 291 291 291 291 292 293 293 294 295 296 296 297
285 285 285 286 286 286 285 285 285 285 284 284 284 284 283 283 283 283 283 283 283 283 283 283 283 283 283 283 283 283 283 283 283 283 283 283 283 283 283 283 283 283 283 283 284 285 285 286 287 287 287 288 288 288 288 288 288 288 287 287 286 286 286 287 287 288 288 289 290 291 291 291 291 292 292 293 293 294 295 295 296 296 297 297 297
286 287 287 287 287 286 286 286 285 285 284 284 284 283 283 283 282 282 282 282 282 282 282 282 282 282 282 282 282 283 283 283 283 282 282 282 282 282 282 282 282 283 283 283 284 284 285 285 286 287 287 288 288 288 288 288 288 288 287 287 287 287 287 288 289 290 291 291 292 292 292 293 293 293 294 294 295 295 296 296 297 297 297 297 297
286 286 286 286 286 285 285 285 284 284 284 284 283 283 283 283 283 282 282 282 282 282 281 281 281 281 281 282 282 282 282 282 282 282 282 281 281 281 281 281 282 283 283 284 284 285 285 286 287 288 289 289 289 289 290 290 289 289 289 289 289 290 290 291 292 292 292 292 292 293 293 293 293 294 294 295 295 296 296 297 297 297 297 297 297
285 285 285 285 284 284 284 284 284 284 284 283 283 283 283 283 283 283 282 282 282 281 281 281 281 281 281 281 281 281 281 281 281 282 281 281 281 281 281 281 282 282 283 284 285 286 287 288 289 290 290 290 290 290 291 290 290 289 289 290 290 291 292 292 292 292 292 292 292 292 293 293 294 294 295 295 296 296 296 296 296 296 296 296 297
285 285 284 284 284 284 284 284 284 284 284 283 283 283 283 283 282 282 282 281 281 281 281 281 281 281 280 280 280 280 280 281 281 281 281 281 281 281 281 281 282 282 283 284 285 286 287 288 289 289 289 289 289 289 289 289 288 288 289 290 290 291 291 291 291 292 292 292 292 293 293 294 294 295 295 296 296 296 296 296 296 296 296 296 297
284 284 284 284 284 284 284 284 284 284 283 283 283 283 283 282 282 282 281 281 281 281 281 281 281 281 280 280 280 280 281 281 281 281 281 281 280 280 280 280 281 282 283 284 285 286 287 287 288 288 288 288 288 288 287 287 287 288 288 289 289 289 290 290 291 291 292 292 293 293 294 294 295 295 295 295 295 295 295 295 296 296 296 297 298
283 283 283 283 283 283 283 283 283 283 283 283 283 283 283 283 282 282 282 281 281 282 281 281 281 281 281 281 282 281 281 281 280 280 280 280 280 280 280 281 282 283 284 284 285 285 285 286 286 287 287 287 287 286 286 286 287 287 287 288 288 288 289 290 290 291 291 292 293 293 294 295 295 295 295 295 295 295 295 295 296 296 297 298 299
283 283 283 283 283 283 283 283 283 283 283 283 283 283 283 283 283 283 282 282 283 283 282 282 282 282 282 282 282 281 281 280 280 280 280 280 280 281 281 282 282 283 283 283 284 284 284 285 285 286 286 285 285 286 286 287 287 287 288 288 288 289 289 290 291 291 291 292 293 293 294 294 295 295 295 294 294 295 295 296 296 297 298 299 301
283 283 283 283 283 283 283 283 283 283 283 283 283 283 283 283 283 283 283 283 283 283 282 282 282 281 281 281 281 281 280 280 280 280 280 280 281 282 282 282 283 283 283 284 284 284 284 284 285 285 284 284 285 285 286 286 287 287 288 288 289 289 290 290 290 291 291 292 293 293 294 294 294 294 294 294 294 295 295 296 297 298 300 301 302
284 284 284 284 284 284 283 283 283 283 283 283 283 284 284 283 283 283 283 283 282 282 282 281 281 281 281 280 280 280 280 280 280 280 281 281 282 282 283 283 284 284 284 284 284 284 284 284 284 284 284 285 285 286 286 287 287 288 288 289 289 289 290 290 290 291 291 292 293 293 293 293 293 293 293 294 294 295 296 297 299 300 302 303 303
284 284 284 284 284 284 284 283 283 283 283 283 283 283 283 283 283 283 283 282 282 282 282 281 281 281 281 281 281 281 281 281 281 281 281 282 282 282 283 284 284 284 284 283 283 283 284 284 284 284 285 286 286 287 287 288 288 289 289 289 290 290 290 290 291 291 292 292 292 292 292 292 292 293 293 294 295 296 297 299 301 302 303 303 303
284 284 283 283 283 283 283 283 283 283 283 283 283 283 283 282 282 282 282 282 282 281 281 281 281 281 282 282 282 282 281 281 281 281 282 282 282 283 283 284 284 283 283 283 283 283 283 284 284 285 286 286 287 288 288 288 289 289 289 290 290 290 290 291 291 291 291 292 292 292 292 292 292 293 294 295 296 298 300 302 303 303 303 302 302
283 283 283 283 283 283 283 283 283 282 282 282 282 281 281 281 281 281 281 281 281 281 281 281 281 282 282 282 282 282 281 281 281 281 282 282 282 283 283 283 283 283 283 283 283 283 284 285 285 286 286 287 287 288 288 289 289 289 289 289 289 290 290 290 290 291 291 291 291 292 292 292 293 294 295 297 299 301 302 302 302 302 301 300 301
283 283 282 282 282 282 282 282 282 282 282 281 281 280 280 280 280 280 280 280 280 280 280 281 281 281 282 282 282 281 281 281 282 282 282 282 282 282 282 283 283 283 283 284 284 285 285 286 286 287 287 287 288 288 288 288 289 289 289 289 289 289 290 290 290 291 291 291 292 292 293 294 295 296 297 299 301 302 302 301 300 299 299 300 301
281 281 281 281 282 281 281 281 281 281 281 280 280 280 280 280 280 280 280 280 280 280 280 281 281 281 281 281 281 281 281 281 282 282 282 282 282 282 283 283 283 284 284 285 285 286 286 287 287 287 288 288 288 288 288 288 288 289 289 289 289 290 290 291 291 292 292 292 293 293 294 295 296 298 299 300 301 301 300 299 299 299 300 300 301
280 280 280 280 280 280 280 280 280 280 280 279 279 279 279 279 279 279 279 279 279 279 280 280 280 280 280 280 281 281 281 281 281 282 282 282 282 282 283 283 283 284 285 285 286 286 287 287 288 288 289 289 289 289 289 289 289 289 290 290 291 291 291 292 292 292 293 293 294 295 296 296 297 299 300 300 300 299 298 299 299 300 300 300 300
279 279 279 279 279 279 279 279 279 279 279 279 279 279 279 279 279 279 278 278 279 279 279 279 279 279 280 280 280 280 281 281 281 281 282 282 282 282 282 283 283 284 284 285 286 286 287 287 288 288 289 289 289 289 289 290 290 291 291 291 292 292 292 292 293 293 294 295 295 295 296 297 298 299 299 299 298 298 299 299 300 300 300 299 299
279 279 279 279 279 279 279 279 279 279 279 279 279 279 279 279 278 278 277 277 278 278 278 278 278 279 279 280 280 280 280 281 281 281 281 281 281 282 282 283 283 284 284 285 285 286 287 287 288 288 288 288 289 289 289 290 291 291 292 292 292 292 293 293 294 294 294 295 295 296 297 299 299 299 298 298 298 299 300 300 300 300 300 300 300
278 278 279 279 279 279 279 279 279 279 279 280 279 279 279 278 277 277 277 277 277 277 277 278 278 279 279 279 280 280 280 280 281 281 281 281 281 281 282 283 283 284 284 285 285 286 286 287 287 288 288 288 289 289 290 290 291 291 292 292 292 292 293 293 293 294 294 295 296 298 299 299 299 298 298 298 299 300 300 300 300 300 300 300 300
278 278 278 278 278 278 278 279 279 279 279 279 279 278 278 277 276 276 276 276 277 277 277 278 278 279 279 279 279 280 280 280 280 280 281 281 281 282 282 282 282 283 284 284 285 285 286 286 287 287 287 288 288 289 290 290 290 291 291 291 291 292 292 292 293 294 295 297 298 299 299 298 297 298 299 300 300 300 300 300 300 300 300 300 300
277 277 277 277 277 277 277 278 278 278 278 278 278 277 277 276 276 276 276 276 276 276 277 277 278 278 278 278 279 279 279 280 280 280 281 281 281 282 282 282 282 283 284 284 284 284 285 285 285 286 286 287 288 288 289 289 289 289 290 290 291 291 292 293 294 296 298 299 299 298 297 297 298 299 300 300 300 300 301 301 301 301 300 300 301
277 277 277 277 276 276 277 277 277 277 277 277 276 276 276 276 276 276 276 276 276 276 277 277 277 277 277 277 278 278 279 279 280 280 280 281 281 281 282 282 282 283 283 283 283 283 284 284 285 285 286 287 287 287 288 288 288 289 289 290 291 292 293 295 297 298 299 298 297 297 297 298 299 299 300 300 301 301 301 301 301 301 301 301 301
277 276 276 276 276 276 276 276 276 276 276 276 276 276 276 276 276 276 276 276 276 276 276 276 276 276 276 277 277 277 278 278 279 279 280 280 281 281 281 281 281 282 282 282 283 283 284 284 285 285 286 286 287 287 287 288 288 289 290 291 292 294 296 297 298 298 297 296 296 297 298 299 299 300 300 301 301 301 301 301 301 301 301 302 302
Height
10686 10685 10683 10681 10679 10677 10675 10674 10672 10670 10668 10666 10662 10658 10655 10652 10650 10649 10647 10643 10640 10638 10634 10630 10627 10625 10622 10620 10617 10613 10611 10608 10606 10604 10602 10599 10595 10590 10585 10581 10579 10576 10572 10570 10565 10561 10558 10555 10551 10546 10541 10537 10534 10529 10524 10520 10516 10513 10510 10505 10501 10497 10492 10489 10488 10487 10484 10479 10473 10468 10465 10461 10457 10451 10446 10442 10436 10430 10424 10419 10414 10409 10403 10396 10390
10676 10675 10674 10671 10669 10666 10664 10662 10660 10659 10658 10655 10653 10649 10646 10643 10641 10640 10638 10634 10631 10628 10624 10620 10618 10615 10612 10609 10606 10603 10600 10597 10595 10593 10591 10589 10585 10581 10577 10573 10569 10565 10561 10558 10553 10549 10547 10543 10539 10534 10530 10527 10523 10518 10514 10510 10506 10503 10500 10496 10492 10487 10482 10479 10477 10475 10473 10468 10463 10458 10454 10449 10445 10440 10436 10430 10425 10419 10413 10408 10403 10397 10391 10385 10379
10667 10666 10664 10662 10659 10656 10654 10651 10649 10648 10647 10645 10643 10640 10637 10635 10633 10632 10629 10625 10622 10619 10615 10611 10607 10604 10601 10598 10595 10592 10589 10586 10583 10582 10580 10579 10576 10573 10568 10565 10561 10556 10552 10547 10543 10539 10536 10532 10528 10523 10519 10517 10513 10508 10503 10500 10496 10493 10490 10486 10482 10478 10473 10469 10466 10464 10461 10457 10452 10448 10444 10438 10433 10429 10424 10419 10414 10409 10403 10398 10392 10386 10380 10373 10367
10658 10656 10654 10652 10648 10645 10643 10639 10638 10637 10635 10634 10632 10629 10627 10625 10622 10620 10618 10615 10612 10609 10605 10602 10598 10594 10590 10586 10584 10582 10578 10575 10573 10570 10568 10567 10566 10563 10559 10556 10553 10548 10543 10538 10533 10529 10525 10522 10517 10512 10509 10506 10502 10497 10493 10489 10486 10483 10480 10476 10472 10469 10464 10459 10456 10453 10450 10446 10442 10437 10433 10429 10424 10418 10413 10408 10403 10397 10392 10386 10380 10374 10368 10361 10355
10648 10646 10644 10642 10639 10635 10632 10629 10626 10625 10623 10621 10619 10617 10614 10612 10610 10607 10605 10602 10600 10597 10594 10590 10587 10584 10580 10577 10574 10572 10569 10566 10563 10559 10556 10555 10554 10552 10549 10546 10542 10538 10533 10528 10523 10519 10515 10511 10507 10502 10499 10496 10492 10487 10484 10480 10476 10473 10470 10466 10462 10458 10454 10449 10446 10443 10439 10435 10431 10426 10422 10418 10413 10407 10402 10397 10391 10386 10380 10375 10369 10363 10356 10350 10344
10636 10634 10632 10631 10628 10624 10621 10618 10615 10613 10610 10608 10606 10604 10602 10599 10597 10595 10592 10590 10589 10586 10582 10579 10577 10575 10572 10568 10564 10561 10558 10555 10552 10547 10544 10542 10541 10539 10536 10534 10530 10526 10522 10517 10512 10508 10504 10500 10496 10492 10489 10486 10482 10478 10474 10470 10467 10463 10459 10455 10451 10448 10444 10439 10435 10432 10428 10424 10419 10415 10411 10406 10401 10396 10391 10386 10381 10376 10370 10365 10358 10352 10346 10340 10333
10622 10620 10619 10617 10614 10611 10609 10606 10604 10602 10600 10598 10596 10594 10591 10589 10587 10584 10582 10580 10578 10575 10572 10570 10568 10566 10562 10558 10554 10550 10547 10544 10540 10535 10532 10530 10528 10526 10524 10521 10518 10514 10510 10505 10501 10497 10493 10489 10485 10482 10479 10475 10472 10469 10465 10461 10457 10454 10450 10445 10441 10437 10434 10429 10425 10421 10417 10412 10408 10403 10399 10395 10390 10385 10380 10375 10370 10364 10359 10354 10347 10340 10334 10328 10321
10613 10610 10608 10605 10602 10600 10598 10596 10595 10593 10592 10590 10587 10585 10582 10580 10578 10575 10572 10570 10567 10564 10562 10560 10558 10555 10551 10547 10543 10540 10537 10533 10528 10523 10520 10518 10516 10514 10511 10508 10505 10502 10498 10494 10490 10486 10483 10479 10476 10472 10469 10466 10463 10459 10455 10451 10448 10445 10441 10436 10431 10427 10423 10419 10414 10409 10404 10399 10395 10391 10386 10382 10377 10372 10367 10362 10357 10352 10346 10341 10335 10328 10321 10315 10308
10604 10602 10599 10595 10591 10590 10588 10586 10584 10583 10582 10580 10577 10574 10571 10569 10567 10565 10561 10558 10555 10552 10550 10548 10546 10542 10538 10534 10531 10528 10525 10521 10516 10511 10508 10505 10503 10502 10499 10496 10493 10490 10486 10483 10479 10475 10472 10469 10466 10463 10460 10457 10453 10449 10445 10442 10438 10435 10431 10427 10422 10418 10413 10408 10403 10398 10393 10389 10385 10380 10375 10369 10364 10359 10354 10349 10344 10339 10333 10327 10322 10316 10310 10303 10296
10596 10592 10588 10584 10580 10578 10576 10574 10572 10570 10568 10565 10563 10560 10558 10556 10554 10552 10548 10545 10542 10540 10538 10536 10533 10529 10525 10522 10518 10515 10512 10508 10503 10499 10496 10492 10490 10488 10486 10483 10480 10477 10474 10471 10468 10464 10461 10459 10456 10453 10449 10446 10443 10439 10435 10431 10427 10424 10420 10417 10413 10408 10403 10397 10392 10386 10381 10378 10373 10368 10363 10357 10352 10347 10342 10336 10331 10326 10321 10315 10310 10304 10298 10291 10284
10589 10585 10580 10576 10572 10569 10567 10565 10562 10559 10555 10552 10550 10547 10545 10543 10540 10537 10534 10532 10529 10527 10525 10523 10519 10515 10512 10509 10506 10502 10498 10494 10490 10486 10483 10480 10477 10475 10473 10471 10468 10464 10462 10459 10456 10453 10450 10448 10445 10442 10438 10434 10431 10428 10424 10420 10416 10412 10408 10405 10401 10396 10391 10385 10379 10375 10370 10366 10361 10355 10350 10345 10339 10334 10329 10324 10318 10313 10308 10303 10298 10291 10285 10279 10271
10579 10576 10573 10568 10565 10562 10558 10557 10554 10550 10546 10543 10540 10537 10534 10532 10528 10524 10521 10518 10516 10514 10512 10508 10505 10502 10499 10496 10493 10490 10486 10481 10477 10473 10470 10467 10464 10463 10461 10458 10456 10453 10449 10446 10444 10442 10439 10436 10434 10430 10426 10422 10418 10415 10411 10407 10403 10399 10396 10393 10388 10383 10377 10371 10366 10361 10357 10353 10348 10342 10337 10332 10327 10320 10315 10310 10304 10300 10295 10290 10285 10279 10272 10265 10258
10566 10564 10562 10558 10555 10551 10548 10546 10544 10540 10535 10532 10529 10527 10524 10520 10516 10513 10510 10507 10504 10502 10499 10495 10493 10489 10486 10484 10481 10478 10474 10469 10464 10461 10458 10455 10452 10451 10449 10446 10444 10441 10437 10434 10432 10430 10427 10424 10421 10418 10413 10409 10405 10401 10397 10394 10390 10386 10382 10379 10373 10368 10363 10358 10354 10349 10344 10340 10334 10328 10323 10319 10314 10307 10301 10296 10291 10286 10281 10276 10270 10265 10258 10251 10245
10551 10549 10547 10544 10541 10539 10536 10535 10532 10528 10524 10520 10518 10515 10511 10508 10505 10501 10499 10496 10493 10490 10487 10484 10481 10477 10474 10472 10470 10467 10463 10458 10453 10450 10447 10444 10441 10439 10438 10435 10432 10429 10425 10422 10419 10417 10414 10411 10409 10405 10401 10396 10392 10387 10383 10380 10376 10373 10369 10364 10359 10353 10348 10344 10341 10336 10331 10326 10321 10315 10309 10305 10300 10293 10287 10281 10277 10272 10266 10261 10255 10250 10244 10237 10231
10536 10534 10532 10530 10526 10524 10522 10521 10518 10515 10511 10508 10506 10503 10499 10496 10493 10489 10486 10484 10481 10478 10474 10471 10468 10465 10462 10460 10458 10456 10451 10446 10442 10440 10436 10432 10430 10428 10427 10424 10421 10417 10414 10410 10407 10405 10402 10399 10396 10393 10388 10383 10379 10374 10370 10366 10363 10359 10355 10350 10345 10340 10335 10330 10326 10321 10315 10310 10305 10300 10294 10289 10284 10278 10273 10267 10262 10256 10251 10246 10241 10236 10230 10224 10218
10522 10519 10517 10515 10511 10509 10507 10506 10505 10501 10497 10494 10492 10489 10485 10483 10479 10475 10473 10471 10467 10464 10461 10458 10455 10453 10450 10447 10445 10443 10439 10434 10431 10429 10425 10421 10419 10417 10415 10412 10408 10405 10402 10398 10396 10394 10391 10388 10384 10380 10376 10370 10365 10361 10357 10353 10349 10345 10340 10335 10331 10326 10321 10316 10311 10306 10300 10295 10291 10285 10280 10274 10269 10264 10259 10253 10248 10242 10237 10232 10228 10222 10216 10210 10203
10507 10504 10502 10499 10496 10494 10491 10491 10490 10487 10483 10480 10478 10475 10472 10469 10466 10462 10460 10458 10454 10451 10448 10445 10443 10440 10437 10433 10431 10429 10427 10423 10420 10418 10414 10410 10407 10405 10403 10399 10395 10392 10389 10386 10384 10382 10379 10375 10372 10367 10363 10357 10352 10348 10344 10339 10335 10331 10326 10321 10316 10312 10308 10303 10297 10292 10287 10281 10276 10272 10267 10262 10257 10251 10246 10240 10235 10229 10223 10218 10212 10207 10201 10195 10189
10491 10489 10487 10483 10480 10477 10475 10474 10473 10471 10469 10466 10463 10461 10458 10455 10452 10449 10446 10444 10442 10438 10435 10433 10430 10427 10424 10421 10418 10416 10414 10410 10407 10405 10402 10398 10395 10391 10388 10385 10381 10378 10375 10373 10370 10368 10365 10361 10357 10353 10348 10343 10339 10334 10329 10325 10320 10316 10311 10306 10301 10298 10294 10289 10283 10278 10273 10267 10262 10258 10254 10250 10245 10238 10233 10227 10221 10215 10209 10203 10198 10192 10187 10180 10174
10475 10474 10471 10468 10464 10462 10459 10458 10456 10455 10453 10451 10448 10446 10444 10441 10438 10435 10433 10431 10429 10426 10423 10421 10418 10415 10412 10409 10406 10404 10401 10398 10395 10392 10388 10384 10380 10376 10372 10370 10366 10362 10359 10358 10355 10352 10349 10346 10341 10337 10333 10329 10324 10319 10315 10312 10307 10301 10296 10292 10288 10284 10280 10275 10270 10265 10259 10254 10249 10245 10240 10235 10230 10224 10218 10212 10206 10200 10195 10190 10184 10179 10173 10167 10161
10460 10459 10457 10454 10451 10447 10445 10443 10441 10439 10438 10436 10434 10432 10430 10428 10425 10422 10420 10417 10415 10413 10410 10408 10406 10402 10399 10396 10393 10390 10388 10385 10382 10378 10373 10368 10365 10361 10357 10354 10349 10346 10343 10341 10339 10336 10332 10329 10325 10322 10319 10315 10309 10303 10300 10296 10291 10286 10281 10278 10274 10270 10265 10261 10256 10250 10245 10240 10234 10230 10225 10219 10214 10209 10204 10198 10192 10186 10181 10176 10170 10165 10159 10153 10147
10447 10445 10443 10441 10438 10435 10432 10429 10427 10425 10423 10422 10421 10418 10416 10414 10412 10409 10407 10404 10402 10400 10397 10394 10392 10389 10385 10382 10379 10376 10373 10371 10368 10364 10359 10353 10349 10346 10342 10337 10334 10331 10328 10325 10322 10318 10315 10312 10308 10305 10303 10301 10296 10290 10284 10280 10275 10270 10266 10263 10259 10254 10250 10245 10240 10235 10230 10225 10220 10215 10210 10205 10200 10195 10189 10184 10178 10173 10167 10161 10156 10151 10145 10140 10134
10433 10432 10430 10427 10425 10422 10420 10417 10414 10412 10410 10408 10407 10405 10402 10400 10398 10395 10392 10390 10387 10385 10382 10379 10376 10374 10370 10367 10364 10361 10358 10355 10353 10350 10344 10338 10332 10329 10325 10322 10319 10316 10312 10309 10305 10301 10298 10296 10293 10289 10286 10284 10281 10275 10270 10266 10261 10257 10253 10249 10244 10239 10234 10229 10225 10220 10215 10210 10205 10200 10195 10190 10185 10180 10175 10169 10164 10158 10153 10147 10142 10137 10131 10125 10120
10420 10419 10416 10414 10412 10410 10407 10404 10401 10399 10396 10394 10393 10391 10388 10385 10383 10380 10377 10374 10371 10369 10366 10362 10360 10357 10354 10351 10348 10346 10343 10340 10338 10334 10329 10322 10317 10313 10308 10305 10302 10299 10296 10292 10288 10285 10283 10280 10278 10275 10271 10268 10264 10259 10254 10251 10247 10243 10239 10234 10229 10223 10219 10214 10209 10204 10199 10194 10189 10185 10180 10175 10170 10165 10160 10154 10149 10143 10138 10133 10127 10122 10117 10112 10106
10408 10406 10404 10402 10400 10397 10395 10392 10388 10385 10382 10379 10377 10375 10372 10369 10366 10363 10360 10356 10354 10351 10348 10345 10342 10340 10337 10334 10331 10328 10326 10324 10322 10318 10313 10307 10303 10297 10291 10287 10285 10283 10279 10275 10270 10267 10266 10264 10262 10259 10255 10250 10246 10242 10238 10235 10232 10228 10223 10218 10213 10208 10204 10199 10194 10189 10184 10179 10174 10169 10164 10159 10155 10150 10145 10140 10134 10129 10124 10119 10114 10109 10103 10099 10094
10395 10393 10390 10387 10385 10383 10381 10378 10373 10370 10367 10363 10360 10357 10354 10351 10349 10345 10342 10339 10336 10333 10330 10326 10324 10321 10318 10315 10312 10309 10307 10306 10303 10300 10295 10291 10286 10281 10276 10271 10268 10265 10261 10257 10254 10250 10248 10246 10244 10241 10237 10233 10229 10226 10223 10219 10215 10211 10206 10202 10198 10193 10188 10183 10178 10174 10169 10164 10159 10154 10150 10145 10141 10135 10130 10125 10120 10115 10110 10106 10101 10096 10091 10086 10082
10379 10377 10373 10370 10367 10365 10364 10362 10358 10353 10350 10346 10343 10340 10336 10333 10330 10327 10323 10320 10318 10315 10312 10308 10305 10301 10298 10295 10291 10289 10288 10286 10283 10280 10277 10273 10269 10265 10260 10256 10251 10247 10243 10239 10236 10233 10231 10229 10226 10222 10219 10217 10214 10210 10207 10202 10198 10193 10190 10186 10182 10177 10172 10167 10163 10158 10154 10149 10145 10140 10136 10131 10127 10122 10117 10112 10107 10102 10098 10093 10089 10084 10079 10074 10069
10360 10359 10355 10351 10348 10346 10344 10343 10340 10336 10332 10328 10325 10322 10318 10315 10312 10309 10305 10302 10299 10297 10294 10290 10286 10282 10279 10275 10272 10270 10269 10267 10264 10261 10259 10256 10251 10247 10244 10240 10236 10232 10228 10223 10219 10216 10213 10211 10209 10206 10204 10202 10198 10194 10190 10186 10182 10178 10174 10170 10166 10161 10157 10152 10148 10144 10140 10135 10131 10127 10122 10118 10114 10109 10104 10099 10094 10089 10085 10080 10076 10071 10066 10060 10055
10340 10339 10336 10332 10329 10326 10323 10322 10320 10317 10313 10310 10307 10304 10301 10298 10295 10292 10288 10284 10282 10280 10276 10273 10269 10264 10261 10257 10255 10253 10251 10249 10246 10244 10242 10238 10234 10229 10226 10222 10219 10216 10213 10209 10205 10201 10198 10196 10194 10192 10189 10186 10182 10179 10175 10171 10168 10164 10160 10156 10152 10148 10143 10139 10135 10131 10127 10122 10118 10114 10110 10105 10101 10096 10091 10086 10080 10075 10070 10066 10061 10057 10051 10046 10040
10321 10319 10315 10312 10310 10307 10304 10302 10300 10298 10295 10292 10288 10285 10283 10280 10278 10275 10271 10268 10265 10263 10259 10255 10251 10247 10244 10241 10238 10236 10234 10232 10229 10227 10225 10222 10217 10213 10209 10204 10200 10198 10197 10194 10191 10187 10184 10182 10179 10177 10175 10172 10169 10165 10162 10158 10155 10151 10147 10143 10138 10134 10130 10126 10122 10118 10114 10110 10105 10101 10096 10091 10086 10081 10076 10071 10066 10061 10056 10051 10046 10042 10037 10032 10026
10305 10301 10297 10293 10291 10289 10286 10283 10280 10278 10277 10274 10271 10267 10264 10262 10260 10258 10255 10251 10248 10245 10242 10238 10233 10230 10228 10225 10222 10219 10217 10215 10213 10211 10209 10206 10201 10197 10192 10186 10182 10181 10180 10178 10176 10173 10170 10168 10166 10164 10161 10158 10155 10151 10148 10144 10140 10135 10131 10126 10122 10119 10115 10112 10108 10104 10100 10096 10091 10086 10082 10076 10072 10067 10061 10056 10051 10046 10042 10037 10032 10028 10023 10018 10012
10288 10286 10280 10276 10273 10271 10268 10266 10263 10260 10258 10255 10252 10249 10246 10243 10242 10240 10238 10234 10230 10227 10224 10220 10217 10215 10213 10210 10207 10203 10200 10198 10196 10194 10192 10190 10186 10182 10177 10171 10167 10165 10164 10162 10159 10157 10154 10152 10151 10149 10145 10142 10139 10135 10132 10128 10124 10119 10115 10111 10107 10104 10100 10097 10093 10090 10086 10081 10077 10072 10068 10063 10058 10053 10048 10043 10038 10033 10028 10023 10019 10014 10009 10004 9998
10269 10268 10264 10258 10255 10253 10251 10248 10245 10242 10240 10237 10234 10231 10229 10226 10223 10221 10219 10216 10213 10208 10205 10203 10200 10199 10197 10194 10191 10188 10185 10183 10181 10178 10176 10173 10170 10167 10162 10157 10154 10152 10149 10147 10144 10141 10139 10137 10136 10134 10130 10127 10123 10120 10117 10113 10109 10105 10101 10097 10094 10090 10087 10083 10080 10076 10072 10068 10064 10059 10055 10050 10045 10040 10035 10030 10024 10019 10014 10009 10005 10000 9995 9990 9985
10249 10248 10245 10240 10237 10234 10232 10230 10227 10224 10221 10219 10216 10213 10211 10209 10207 10204 10201 10199 10196 10192 10189 10186 10183 10181 10180 10177 10174 10172 10171 10169 10166 10163 10160 10157 10155 10151 10147 10143 10140 10138 10136 10134 10131 10128 10126 10124 10122 10119 10116 10113 10110 10107 10104 10100 10096 10092 10089 10086 10082 10079 10074 10070 10066 10063 10059 10055 10050 10046 10041 10037 10032 10027 10022 10016 10011 10005 10000 9995 9991 9986 9981 9976 9971
10230 10228 10226 10222 10219 10217 10214 10211 10209 10206 10203 10201 10198 10195 10193 10192 10190 10187 10183 10181 10179 10177 10175 10171 10166 10164 10163 10161 10159 10158 10157 10155 10151 10147 10144 10142 10139 10136 10133 10129 10127 10125 10124 10122 10119 10117 10115 10112 10109 10106 10103 10100 10097 10094 10091 10087 10084 10081 10078 10075 10071 10067 10063 10058 10054 10050 10046 10041 10037 10032 10027 10022 10018 10013 10008 10002 9997 9991 9986 9981 9977 9972 9967 9962 9958
10212 10211 10208 10204 10201 10200 10198 10195 10192 10189 10187 10183 10181 10178 10176 10175 10173 10169 10166 10164 10163 10162 10160 10155 10150 10148 10146 10145 10144 10143 10141 10139 10136 10133 10129 10127 10123 10121 10119 10117 10116 10114 10112 10109 10107 10105 10102 10100 10096 10093 10090 10087 10083 10080 10077 10074 10072 10069 10066 10063 10059 10055 10051 10046 10042 10037 10033 10028 10023 10018 10013 10008 10004 9999 9994 9989 9983 9977 9972 9968 9963 9959 9954 9949 9945
10194 10192 10190 10186 10184 10183 10181 10179 10175 10173 10170 10167 10164 10162 10160 10158 10156 10152 10150 10149 10147 10145 10143 10140 10136 10134 10133 10131 10129 10127 10125 10123 10121 10117 10115 10112 10109 10107 10106 10105 10104 10102 10099 10097 10094 10092 10089 10086 10084 10081 10077 10073 10070 10066 10064 10061 10058 10055 10053 10049 10046 10042 10038 10033 10029 10024 10019 10014 10010 10005 10000 9995 9990 9985 9980 9974 9969 9964 9959 9955 9950 9945 9940 9936 9932
10176 10174 10171 10168 10166 10165 10164 10162 10159 10156 10154 10151 10148 10146 10144 10142 10139 10137 10135 10134 10132 10129 10127 10124 10122 10120 10119 10117 10115 10112 10111 10109 10106 10103 10100 10098 10096 10093 10092 10091 10091 10089 10086 10083 10080 10077 10075 10073 10070 10067 10063 10060 10057 10054 10051 10049 10046 10042 10039 10036 10032 10029 10024 10020 10015 10010 10006 10001 9996 9991 9986 9982 9977 9972 9966 9960 9955 9951 9947 9942 9936 9931 9927 9922 9917
10158 10156 10154 10150 10148 10148 10147 10145 10143 10141 10138 10136 10133 10130 10129 10127 10124 10121 10120 10119 10117 10114 10111 10109 10107 10105 10104 10103 10101 10099 10097 10095 10092 10089 10086 10085 10083 10080 10077 10077 10077 10075 10072 10069 10066 10063 10060 10057 10055 10052 10049 10046 10043 10041 10038 10035 10032 10029 10025 10022 10018 10014 10010 10005 10001 9997 9992 9988 9983 9978 9973 9968 9963 9958 9952 9947 9942 9938 9934 9928 9923 9918 9913 9908 9902
10140 10139 10136 10133 10132 10131 10129 10128 10127 10125 10123 10121 10118 10116 10114 10112 10109 10106 10105 10104 10102 10099 10097 10094 10091 10090 10089 10088 10087 10085 10083 10080 10078 10076 10073 10071 10069 10066 10064 10063 10062 10060 10057 10054 10051 10049 10046 10043 10040 10038 10035 10033 10030 10027 10024 10021 10018 10015 10011 10007 10004 10000 9995 9991 9988 9983 9979 9974 9970 9965 9959 9954 9950 9945 9939 9933 9929 9925 9920 9915 9910 9904 9898 9893 9887
10124 10122 10120 10117 10115 10114 10113 10112 10111 10109 10108 10107 10104 10101 10099 10097 10094 10092 10091 10089 10087 10084 10082 10079 10077 10076 10075 10074 10072 10070 10069 10066 10064 10062 10060 10058 10056 10053 10051 10049 10047 10045 10043 10040 10037 10035 10032 10030 10028 10025 10023 10020 10017 10014 10011 10008 10004 10001 9997 9993 9990 9986 9982 9978 9974 9970 9965 9961 9956 9950 9945 9940 9935 9930 9925 9920 9915 9911 9907 9902 9896 9890 9884 9878 9872
10107 10106 10104 10101 10099 10098 10097 10096 10094 10094 10093 10092 10089 10086 10084 10082 10080 10078 10076 10074 10072 10069 10067 10065 10064 10063 10062 10060 10058 10056 10054 10052 10050 10049 10047 10045 10043 10040 10037 10035 10033 10031 10028 10026 10023 10021 10019 10017 10015 10013 10010 10007 10004 10001 9997 9994 9991 9987 9984 9980 9976 9972 9968 9964 9960 9956 9952 9947 9941 9936 9931 9926 9921 9915 9910 9905 9901 9897 9893 9888 9882 9876 9871 9865 9859
10091 10090 10088 10086 10083 10082 10081 10079 10078 10078 10077 10076 10074 10071 10069 10067 10066 10063 10061 10059 10057 10054 10053 10052 10051 10050 10048 10046 10044 10042 10041 10039 10037 10035 10034 10032 10030 10027 10024 10021 10019 10016 10014 10012 10009 10007 10005 10004 10002 9999 9997 9994 9991 9988 9984 9981 9977 9974 9970 9966 9962 9959 9954 9950 9946 9942 9937 9932 9927 9921 9916 9911 9905 9900 9895 9891 9888 9884 9880 9874 9868 9862 9857 9851 9846
10077 10075 10073 10071 10069 10066 10064 10064 10063 10062 10061 10061 10059 10057 10055 10053 10051 10048 10046 10044 10042 10040 10039 10038 10037 10036 10034 10033 10031 10029 10027 10025 10024 10023 10021 10019 10016 10013 10010 10008 10005 10002 10000 9998 9996 9994 9992 9990 9987 9985 9983 9980 9977 9974 9971 9968 9964 9960 9956 9952 9948 9944 9940 9935 9931 9927 9922 9917 9912 9907 9901 9896 9891 9886 9882 9879 9876 9871 9866 9860 9854 9849 9844 9838 9833
10062 10060 10058 10057 10054 10051 10049 10048 10047 10047 10046 10045 10044 10042 10041 10039 10037 10035 10032 10029 10027 10026 10025 10024 10023 10021 10020 10019 10018 10016 10014 10012 10011 10010 10008 10006 10003 10000 9997 9995 9992 9990 9987 9985 9983 9981 9978 9976 9973 9971 9968 9965 9962 9959 9956 9953 9949 9946 9942 9937 9933 9929 9925 9921 9916 9912 9907 9902 9897 9892 9887 9882 9877 9874 9870 9866 9862 9857 9851 9845 9840 9835 9831 9825 9820
10046 10045 10044 10042 10039 10036 10034 10033 10032 10031 10031 10030 10029 10028 10027 10026 10024 10021 10017 10014 10013 10012 10011 10010 10008 10007 10006 10005 10004 10003 10000 9998 9998 9997 9995 9993 9990 9987 9984 9982 9980 9977 9975 9973 9970 9968 9965 9963 9960 9957 9954 9951 9948 9945 9941 9938 9934 9930 9926 9922 9918 9914 9910 9906 9901 9897 9892 9887 9882 9877 9873 9869 9865 9861 9857 9852 9847 9842 9836 9831 9827 9822 9817 9812 9807
10030 10029 10028 10025 10023 10020 10019 10017 10016 10015 10015 10015 10014 10014 10013 10012 10010 10006 10003 10000 9999 9998 9997 9995 9993 9992 9992 9991 9990 9989 9987 9984 9983 9983 9981 9979 9977 9974 9971 9969 9967 9965 9962 9960 9957 9955 9952 9949 9946 9943 9940 9937 9934 9931 9927 9924 9919 9915 9911 9907 9903 9899 9895 9890 9886 9882 9878 9874 9869 9865 9861 9856 9852 9847 9842 9837 9833 9828 9823 9818 9813 9808 9804 9799 9794
10015 10013 10012 10010 10007 10005 10003 10002 10001 10000 9999 10000 10000 9999 9998 9996 9994 9991 9988 9987 9985 9984 9982 9981 9979 9979 9978 9977 9976 9975 9973 9971 9969 9968 9966 9965 9963 9961 9959 9956 9954 9951 9949 9947 9944 9941 9939 9936 9933 9930 9927 9923 9920 9916 9913 9909 9905 9901 9897 9893 9888 9884 9880 9876 9873 9869 9865 9861 9857 9853 9848 9842 9837 9831 9827 9823 9819 9815 9809 9804 9799 9795 9790 9786 9781
10000 9999 9997 9995 9992 9989 9987 9986 9985 9985 9985 9986 9985 9984 9982 9981 9979 9977 9974 9973 9972 9970 9968 9967 9966 9965 9964 9962 9961 9960 9958 9957 9955 9953 9952 9950 9949 9948 9946 9943 9941 9939 9936 9934 9931 9928 9925 9922 9919 9916 9913 9910 9906 9903 9899 9895 9892 9887 9883 9879 9875 9871 9867 9863 9860 9856 9852 9849 9844 9839 9833 9827 9822 9818 9814 9810 9806 9801 9796 9791 9786 9782 9778 9773 9769
9985 9984 9982 9980 9977 9974 9972 9971 9971 9970 9971 9971 9971 9969 9967 9966 9964 9962 9961 9959 9958 9957 9955 9954 9952 9951 9950 9949 9947 9946 9944 9942 9941 9939 9937 9936 9935 9933 9931 9930 9928 9926 9924 9921 9918 9915 9912 9909 9906 9903 9900 9897 9893 9890 9886 9882 9878 9874 9870 9866 9862 9858 9855 9851 9847 9843 9839 9835 9830 9824 9818 9813 9809 9805 9801 9797 9793 9788 9783 9778 9773 9769 9765 9761 9757
9969 9968 9967 9965 9962 9959 9957 9956 9956 9955 9955 9955 9955 9955 9953 9951 9949 9948 9947 9946 9945 9943 9942 9940 9939 9937 9936 9935 9934 9932 9930 9928 9926 9925 9923 9922 9920 9919 9917 9915 9914 9912 9909 9907 9904 9901 9898 9895 9892 9889 9886 9883 9880 9877 9873 9869 9865 9861 9857 9853 9850 9846 9842 9838 9834 9830 9826 9820 9814 9809 9804 9800 9797 9793 9789 9784 9779 9775 9770 9766 9761 9757 9754 9750 9746
9954 9953 9951 9949 9947 9944 9942 9941 9941 9940 9939 9939 9939 9939 9939 9937 9935 9933 9933 9932 9931 9929 9927 9926 9924 9923 9922 9921 9920 9919 9917 9915 9913 9911 9910 9908 9906 9905 9903 9901 9899 9897 9894 9892 9889 9886 9883 9880 9878 9875 9872 9869 9866 9863 9859 9855 9851 9848 9844 9841 9838 9834 9831 9827 9822 9817 9812 9806 9800 9795 9791 9788 9784 9780 9776 9771 9767 9762 9758 9753 9750 9746 9742 9738 9735